Weather Service Report


881 
ASUS42 KTBW 230916
RWRFL 
FLORIDA REGIONAL WEATHER ROUNDUP
NATIONAL WEATHER SERVICE TAMPA BAY RUSKIN FL
500 AM EDT SAT JUL 23 2016

NOTE: "FAIR" INDICATES FEW OR NO CLOUDS BELOW 12,000 FEET WITH NO
SIGNIFICANT WEATHER AND/OR OBSTRUCTIONS TO VISIBILITY.

FLZ001>010-012>015-112-114-115-231000-
PANHANDLE FLORIDA
  
CITY           SKY/WX    TMP DP  RH WIND       PRES   REMARKS
PENSACOLA      PTCLDY    80  77  90 NE3       29.99R                  
PENSACOLA NAS  CLEAR     77  75  93 N5        29.98S                  
MILTON NAS     CLEAR     73  73 100 CALM      30.00                   
CRESTVIEW      CLEAR     73  71  93 CALM      30.01F                  
DUKE FIELD     FAIR      73  71  95 CALM      29.99S                  
VALPARAISO     PTCLDY    76  72  89 N2        29.98F                  
MARY ESTHER    PTCLDY    76  75  96 NW5       29.98S                  
TRI COUNTY     HAZE      78  72  81 CALM      30.01S VSB 1            
PANAMA CITY    FAIR      75  73  93 NE3       29.99F                  
TYNDALL AFB    CLEAR     76  74  96 CALM      29.99F                  
APALACHICOLA   PTCLDY    74  74 100 CALM      29.99F                  

STATION/POSITION SKY/WX   TEMP    WIND        PRES    WAVE   SWELL
                          AIR SEA DIR/SP/G            HT/PER HT/PER
                          (F)     (DEG/KT/KT) (MB)    (FT/S) (FT/S)
30.1N   87.6W              85 89  220/  4/  6 1015.5S   1/ 5
29.2N   88.2W              84 89  210/ 14/ 16 1014.8F
28.8N   86.0W              84 87  140/  2/  4 1015.6F   1/ 5
PANAMA CITY BEAC           79 88   40/  5/  6 1016.1F
TOWER C                    83     110/  3/  4 1016.4F
28.5N   84.5W              85 87  140/  8/ 10 1015.5F   1

$$
FLZ011-016>038-118-127-128-134-139-239-231000-
NORTH FLORIDA
  
CITY           SKY/WX    TMP DP  RH WIND       PRES   REMARKS
MARIANNA       CLEAR     74  73  97 CALM      30.00S                  
TALLAHASSEE    CLEAR     75  73  93 CALM        N/A                   
PERRY          CLEAR     74  73  95 CALM      30.02S                  
LIVE OAK         N/A     73  73 100 CALM      30.03F                  
CROSS CITY       N/A     76  72  87 CALM      30.01S                  
LAKE CITY      FAIR      70  70 100 CALM      30.02S                  
GAINESVILLE    CLEAR     73  71  93 CALM      30.02F                  
WILLISTON      FAIR      73  73 100 CALM      30.02F                  
PALATKA        FAIR      72  54  53 CALM      30.02F                  
MAYPORT NAS    CLEAR     77  73  87 W3        30.02S                  
JACKSONVILLE   PTCLDY    70  70 100 CALM      30.02S                  
JAX NAS        PTCLDY    80  70  71 CALM      30.02S                  
JAX CECIL      CLEAR     68  68 100 CALM      30.02S                  
FERNANDINA BEA FAIR      77  72  83 CALM      30.01S                  
ST AUGUSTINE   CLEAR     75  71  87 CALM      30.02F                  
PALM COAST     FAIR      73  73 100 CALM      30.02S                  

STATION/POSITION SKY/WX   TEMP    WIND        PRES    WAVE   SWELL
                          AIR SEA DIR/SP/G            HT/PER HT/PER
                          (F)     (DEG/KT/KT) (MB)    (FT/S) (FT/S)
SHELL POINT                77     360/  5/  7 1014.8
KEATON BEACH               75      60/  4/  6 1015.9R
CEDAR KEY                  79      50/  5/  6 1016.5R
FERNANDINA                 78 89  280/  3/  5 1016.5F
30.7N   81.3W                 86                N/A     2/ 9
MAYPORT                    79 88  190/  2/  2 1016.7F
31.4N   80.9W              84 86  250/  8/ 10 1016.1F   2/ 9   2/ 9
ST AUGUSTINE               78 86  260/  4/  5 1017.3F

$$
FLZ040-043>046-052-053-057-058-063-144-231000-
INTERIOR CENTRAL FLORIDA
  
CITY           SKY/WX    TMP DP  RH WIND       PRES   REMARKS
OCALA          CLEAR     72  68  88 SE5       30.02S                  
THE VILLAGES     N/A     73  73 100 CALM      29.94R                  
LEESBURG       CLEAR     75  72  90 SW3       30.03S                  
SANFORD        CLEAR     74  72  93 CALM      30.02F                  
ORLANDO EXEC   CLEAR     74  71  91 SE3       30.03S                  
ORLANDO INTL   MOCLDY    74  71  91 CALM      30.03F                  
KISSIMMEE      CLEAR     73  72  96 CALM      30.03F                  
WINTER HAVEN   PTCLDY    73  71  93 CALM      30.04S                  
LAKELAND       PTCLDY    72  72 100 CALM      30.03F FOG              
BARTOW         FAIR      68 N/A N/A CALM      30.04S FOG              
OKEECHOBEE     CLEAR     70  70 100 CALM      30.02F                  

$$
FLZ041-047-054-059-064-141-147-231000-
EAST CENTRAL FLORIDA
  
CITY           SKY/WX    TMP DP  RH WIND       PRES   REMARKS
DAYTONA BEACH  MOCLDY    74  74 100 CALM      30.03F                  
JFK SPACE CTR  CLEAR     73  70  92 CALM      30.02S                  
CAPE CANAVERAL CLEAR     76  72  89 NW5       30.00F                  
PATRICK AFB    PTCLDY    78  73  83 SW5       30.01F                  
MELBOURNE      PTCLDY    73  71  93 CALM      30.02F                  
VERO BEACH     CLEAR     73  71  93 CALM      30.02F                  
FT PIERCE      CLEAR     72  71  97 CALM      30.01F                  
STUART         CLEAR     77  73  88 CALM      30.02F                  

STATION/POSITION SKY/WX   TEMP    WIND        PRES    WAVE   SWELL
                          AIR SEA DIR/SP/G            HT/PER HT/PER
                          (F)     (DEG/KT/KT) (MB)    (FT/S) (FT/S)
28.5N   80.2W              82 83  280/  4/  4 1016.9F
28.9N   78.5W              84 86  320/  4/  4 1016.5F
TRIDENT PIER               79 87  240/  4/  5 1017.0F
28.4N   80.5W                 86                N/A     2/ 9
27.5N   80.2W                 85                N/A     2/ 9

$$
FLZ050-056-061-142-242-148-248-149-249-151-251-155-255-
160-260-231000-
WEST CENTRAL FLORIDA
  
CITY           SKY/WX    TMP DP  RH WIND       PRES   REMARKS
CRYSTAL RIVER  FAIR      72  72 100 CALM      30.02F                  
INVERNESS      CLOUDY    72  72 100 CALM      30.03S FOG              
BROOKSVILLE    FOG       72  72 100 SE6       30.03F VSB 1/4          
ZEPHYRHILLS    FOG      N/A N/A N/A CALM      30.04S VSB 1/4          
CLEARWATER AIR FAIR      73  73 100 CALM      30.02S                  
ST PETE CLEARW CLEAR     76  70  82 CALM      30.02F                  
TAMPA INTL     MOCLDY    75  72  90 CALM      30.03F                  
TAMPA EXEC     PTCLDY    73  72  94 CALM      30.03F FOG              
PLANT CITY       N/A    N/A N/A N/A MISG        N/A                   
MACDILL AFB    PTCLDY    74  74 100 E3        30.02F                  
PETER O KNIGHT PTCLDY    77  73  88 CALM      30.03S                  
ST PETERSBURG  PTCLDY    78  73  84 S6        30.00F                  
SARASOTA       PTCLDY    75  72  90 E5        30.01S                  
VENICE         NOT AVBL                                               

STATION/POSITION SKY/WX   TEMP    WIND        PRES    WAVE   SWELL
                          AIR SEA DIR/SP/G            HT/PER HT/PER
                          (F)     (DEG/KT/KT) (MB)    (FT/S) (FT/S)
27.3N   84.2W                 86                N/A     1/ 4
CLEARWATER BEACH           78 88  140/  5/  7 1016.8F
MIDDLE TAMPA BAY                  100/  2/  3 1017.1F
VENICE                     75 86   70/  6/  7 1016.4R

$$
FLZ066-069-070-075>078-162-262-165-265-231000-
SOUTHWEST FLORIDA AND KEYS
  
CITY           SKY/WX    TMP DP  RH WIND       PRES   REMARKS
PUNTA GORDA    CLOUDY    73  72  96 E3        30.04S                  
FT MYERS       PTCLDY    74  71  91 E3        30.02F                  
SOUTHWEST INTL PTCLDY    74  71  91 NE3       30.02F                  
NAPLES         CLEAR     73  72  96 N3        30.01F                  
MARCO ISLAND   CLEAR     73  68  83 NE5       30.02S                  
MARATHON       PTCLDY    81  76  84 CALM      29.99F                  
KEY WEST NAS   CLEAR     82  76  81 CALM      30.00S                  
KEY WEST INTL  CLEAR     82  78  88 E5        30.00S                  

STATION/POSITION SKY/WX   TEMP    WIND        PRES    WAVE   SWELL
                          AIR SEA DIR/SP/G            HT/PER HT/PER
                          (F)     (DEG/KT/KT) (MB)    (FT/S) (FT/S)
NAPLES                        86              1016.5S
26.0N   85.6W              84 87  210/  6/  8 1015.8F   1/ 4
DRY TORTUGAS               83     150/  7/  8 1016.0S
SAND KEY                   83     140/  7/  8 1016.3S
LONG KEY                   83 85  140/  4/  5 1016.1F
MOLASSES REEF                     170/  4       N/A

$$
FLZ067-068-071>074-168-172>174-231000-
SOUTHEAST FLORIDA 
  
CITY           SKY/WX    TMP DP  RH WIND       PRES   REMARKS
W PALM BEACH   PTCLDY    77  73  87 CALM      30.03S                  
FT LAUDER-EXEC CLEAR     77  72  84 N3        30.01S                  
FT LAUDERDALE  PTCLDY    77  72  84 N5        30.01S                  
POMPANO BEACH  CLEAR     76  72  87 N6        30.01F                  
PEMBROKE PINES CLEAR     76  73  91 CALM      30.03S                  
OPA LOCKA      CLEAR     77  74  90 N5        30.02S                  
MIAMI          PTCLDY    77  74  90 N5        30.02R                  
WEST KENDALL   CLEAR     72  72 100 CALM      30.02R                  
HOMESTEAD      CLEAR     76  74  95 N3        30.01R                  

STATION/POSITION SKY/WX   TEMP    WIND        PRES    WAVE   SWELL
                          AIR SEA DIR/SP/G            HT/PER HT/PER
                          (F)     (DEG/KT/KT) (MB)    (FT/S) (FT/S)
PORT EVERGLADES            79     330/  5/  6 1016.2F
VIRGINIA KEY               81 88   CALM  /  1 1016.4F
LAKE WORTH                        340/  5/  6   N/A
FOWEY ROCKS                82 84     CALM     1016.8R
SETTLEMENT POINT           77     170/  9/ 12 1016.8F

$$

  

Return to Home page


Western Regional Climate Center, wrcc@dri.edu